User: anonymous   Login
Location: Marseilles
(40.7010°N, 83.3930°W)
Time: 17:51:59
(UTC-04:00)
Language:

Cosmos 1459 Rocket - Orbit

View from above orbital plane
View from above orbital plane
View from above satellite
View from above satellite

Ground track
Ground track

The orbit data is extracted from the following two-line orbital elements,

1 14059U 83042B   15146.85214688  .00000078  00000-0  61236-4 0  9992
2 14059 082.9728 260.2921 0041841 218.1829 257.7064 13.78514097612104
Epoch (UTC): 26 May 2015 20:27:05
Eccentricity: 0.0041841
inclination: 82.9728°
perigee height: 938 km
apogee height: 1000 km
right ascension of ascending node: 260.2921°
argument of perigee: 218.1829°
revolutions per day: 13.78514097
mean anomaly at epoch: 257.7064°
orbit number at epoch: 61210

The dashed part of the orbit path shows where the satellite is in the earth's shadow,  

DLR